Regional Weather Roundup
Issued by NWS State College, PA

Home | Current Version | Previous Version | Text Only | Print | Product List | Glossary On
Versions: 1 2 3 4 5 6 7 8 9 10 11 12 13 14 15 16 17 18 19 20 21 22 23 24 25 26 27 28 29 30 31 32 33 34 35 36 37 38 39 40 41 42 43 44 45 46 47 48 49 50
000
ASUS41 KCTP 010410
RWRCTP

REGIONAL WEATHER ROUNDUP
NATIONAL WEATHER SERVICE STATE COLLEGE PA
1200 AM EDT FRI AUG 01 2014

Note: "fair" indicates few or no clouds below 12,000 feet with no
significant weather and/or obstructions to visibility.

* = STATION THAT DOES NOT REPORT PRECIPITATION /E.G. RAIN...SNOW...ETC/
    THUNDER OR FOG.

PAZ002>004-007>009-013>016-020>023-029>032-010500-
WESTERN PENNSYLVANIA

CITY           SKY/WX    TMP DP  RH WIND       PRES   REMARKS
ERIE           CLEAR     65  52  62 S9        30.08S
MEADVILLE      CLEAR     63  52  67 CALM      30.12S
FRANKLIN*      PTCLDY    59  54  82 CALM      30.15S
NEW CASTLE     FAIR      61  60  96 CALM      30.13S
BEAVER COUNTY  NOT AVBL
BUTLER*        CLEAR     61  57  88 CALM      30.14F
PITTSBURGH INT PTCLDY    66  62  87 S3        30.13S
PITTSBURGH     CLEAR     68  60  75 S3        30.13S
INDIANA*       CLOUDY    61  61 100 CALM      30.18S FOG
LATROBE        CLEAR     63  63 100 CALM      30.15S
WASHINGTON CO* MOCLDY    57  57 100 CALM      30.14R VSB 1/2
$$

PAZ004>006-010>012-017>019-024>028-033>037-041-042-045-046-049>053-010500-
CENTRAL PENNSYLVANIA

CITY           SKY/WX    TMP DP  RH WIND       PRES   REMARKS
BRADFORD       CLEAR     51  50  96 SE5       30.16S
DUBOIS         CLEAR     64  60  87 S5        30.15S
CLEARFIELD     CLEAR     60  59  96 N5        30.16S
JOHNSTOWN      CLEAR     62  56  80 CALM      30.18S
ALTOONA        PTCLDY    59  58  96 CALM      30.17R
STATE COLLEGE  CLEAR     62  61  94 CALM      30.15S FOG
WILLIAMSPORT   MOCLDY    67  63  87 NW3       30.12R
SELINSGROVE    CLEAR     61  59  93 CALM      30.14S FOG
FT INDIANTOWN  PTCLDY    65  65  99 NE2       30.14R
CAPITAL CITY   CLEAR     67  62  84 CALM      30.12S
HARRISBURG     PTCLDY    69  62  78 E3        30.11S
YORK           CLEAR     65  61  87 CALM      30.13R
$$

PAZ038>040-043-044-047-048-054-055-060>062-067>071-010500-
EASTERN PENNSYLVANIA

CITY           SKY/WX    TMP DP  RH WIND       PRES   REMARKS
SCRANTON       CLOUDY    68  58  70 CALM      30.14S
MOUNT POCONO   PTCLDY    60  56  86 CALM      30.19S
ALLENTOWN      MOCLDY    67  61  81 CALM      30.14S
QUAKERTOWN*    CLEAR     64  63  94 CALM      30.16S
READING        MOCLDY    70  64  81 CALM      30.13S
LANCASTER      MOCLDY    69  64  84 E3        30.13S
COATESVILLE    PTCLDY    66  66 100 E3        30.16S
POTTSTOWN      CLEAR     68  62  81 CALM      30.16R
BLUE BELL      PTCLDY    72  66  83 CALM      30.15R
DOYLESTOWN     PTCLDY    67  62  84 CALM      30.15R
WILLOW GROVE   NOT AVBL
NORTH PHILA    MOCLDY    74  64  71 CALM      30.16R
PHILADELPHIA   MOCLDY    74  67  78 S5        30.15R
$$



USA.gov is the U.S. government's official web portal to all federal, state and local government web resources and services.